Theta_e
300 300 299 298 296 295 295 294 294 293 294 294 295 295 295 295 294 293 295 294 294 294 294 293 292 290 290 290 291 291 290 290 290 290 290 290 289 289 289 289 289 288 288 287 286 287 285 284 284 283 283 283 282 283 282 282 282 281 283 283 281 280 280 280 281 281 280 280 279 280 282 282 285 283 281 282 283 283 283 283 283 283 283 283 283
298 298 299 295 294 293 292 292 292 292 293 293 294 295 295 295 294 294 294 294 294 295 294 294 294 293 292 291 292 291 290 290 289 290 290 290 289 289 289 288 288 288 288 287 287 286 285 284 284 283 283 283 282 282 281 284 283 282 282 279 280 279 280 280 281 279 279 278 279 280 280 280 283 281 281 282 282 283 283 282 283 283 283 283 283
298 297 298 295 294 292 292 292 292 294 294 294 294 295 294 294 294 294 294 294 294 294 294 294 294 294 293 292 292 290 290 290 290 289 289 289 288 288 288 288 288 287 287 287 286 286 285 285 284 284 283 283 283 281 282 282 282 282 281 281 280 280 281 281 280 279 279 278 279 278 277 278 283 279 280 281 281 282 281 282 283 282 282 282 283
297 297 297 297 292 291 290 290 291 291 292 292 293 293 294 294 294 293 293 293 294 294 294 294 293 291 289 290 290 289 288 289 287 287 287 287 287 287 287 288 287 287 287 287 287 286 285 285 284 283 283 283 283 282 282 282 281 281 281 281 282 280 278 280 281 279 279 279 279 278 276 278 279 278 277 279 279 280 281 282 282 281 281 282 282
296 296 297 297 294 290 290 290 289 290 292 292 292 293 295 294 294 294 293 293 293 294 294 292 291 289 288 288 288 287 287 286 286 285 287 287 287 286 287 287 287 287 287 287 287 286 285 285 284 284 283 283 283 282 282 283 282 282 282 281 280 281 279 278 280 280 279 281 280 277 276 279 277 277 277 277 278 280 280 280 282 280 281 281 281
295 296 296 296 294 291 288 288 289 290 291 293 293 294 294 294 294 293 293 293 293 293 293 292 292 290 288 288 287 287 286 286 287 287 285 287 288 288 287 288 288 287 287 287 287 286 285 285 284 284 283 283 283 282 282 281 281 281 281 281 279 279 280 279 278 281 280 280 279 277 278 278 277 275 276 278 277 279 279 280 279 279 279 280 281
292 293 294 294 292 291 289 287 289 290 292 293 292 293 293 293 293 293 293 292 293 292 293 292 291 291 290 290 290 289 289 288 290 289 288 289 289 288 287 287 287 287 286 286 286 286 285 285 284 284 283 283 283 282 281 282 282 282 282 280 280 281 280 279 280 279 279 279 279 279 281 279 278 277 275 277 276 277 277 278 279 278 279 279 280
293 294 294 293 290 290 292 292 290 291 291 290 291 290 291 291 291 292 292 292 292 292 292 292 291 291 290 290 291 290 290 289 289 289 289 289 288 288 287 286 286 287 286 286 286 286 285 284 284 283 283 282 283 282 282 282 281 281 282 280 280 281 280 281 279 279 279 279 280 279 280 279 278 277 277 276 275 275 276 277 277 278 280 279 280
291 292 293 292 290 290 290 290 289 288 289 289 289 289 290 289 290 290 291 291 291 292 292 292 292 291 291 291 290 291 290 288 288 289 288 287 287 286 286 286 286 286 286 286 285 285 285 284 283 283 283 282 283 282 281 281 281 281 281 280 280 280 279 279 280 279 279 279 278 277 278 277 277 277 277 278 276 274 275 275 275 277 277 278 278
290 290 291 291 290 289 288 286 286 287 287 288 288 288 288 288 289 289 289 290 290 291 292 291 292 291 290 290 290 289 288 286 287 286 286 286 286 285 285 285 285 285 285 285 285 285 284 284 283 283 283 282 283 282 281 280 280 281 281 281 281 280 279 280 279 279 279 279 279 279 277 276 277 277 276 276 276 276 276 275 275 275 275 276 278
292 290 289 289 287 287 285 285 284 284 284 287 287 287 287 288 288 288 289 289 289 290 291 290 291 291 291 290 290 289 287 286 286 285 285 285 286 285 285 285 285 285 284 284 284 284 284 284 283 283 283 283 283 281 281 281 281 281 281 280 281 280 279 279 281 279 278 279 278 279 279 279 277 276 276 276 276 275 275 275 276 276 275 275 276
290 289 290 290 289 287 285 286 284 283 284 285 285 286 286 286 287 287 287 288 288 289 289 290 290 290 290 290 290 290 288 287 287 286 285 286 286 285 285 284 284 284 284 283 283 283 284 283 283 282 282 282 282 282 281 281 281 280 280 280 280 280 279 280 279 278 278 279 278 278 278 278 278 277 278 278 277 276 276 275 275 275 275 276 277
288 289 288 288 289 288 286 286 284 283 284 284 285 285 285 285 286 287 287 287 288 289 289 289 290 290 290 290 290 290 289 288 288 287 286 286 286 285 284 284 284 283 283 283 283 283 284 283 282 282 282 282 282 281 281 281 280 280 280 280 280 280 280 279 279 278 279 279 278 277 277 278 277 278 279 278 277 277 276 274 275 276 274 275 276
287 286 287 287 287 287 285 284 283 283 284 284 285 285 285 285 285 286 287 287 287 288 289 289 289 290 290 290 290 290 289 288 288 287 286 287 287 286 285 285 284 285 284 284 284 284 284 284 283 283 282 282 282 282 281 280 280 280 280 280 279 280 279 279 279 278 278 278 278 278 277 277 277 278 278 278 277 277 275 275 275 275 275 274 276
285 287 287 287 286 285 284 283 283 283 284 283 283 284 284 284 284 285 285 285 286 288 288 289 289 289 289 290 290 289 289 289 288 288 287 287 287 286 286 286 286 286 285 285 285 284 284 283 283 282 282 281 282 281 281 280 280 280 280 280 279 279 279 279 278 278 278 278 278 278 278 277 277 277 278 278 278 278 277 276 275 274 273 274 274
287 286 288 287 285 283 282 282 282 282 282 282 283 284 285 285 285 286 286 286 286 287 288 288 289 289 289 289 289 289 289 288 288 287 287 287 287 287 286 286 286 286 286 285 284 284 283 283 283 282 282 281 281 281 281 280 280 279 279 279 279 279 279 278 278 278 278 278 278 277 278 277 277 277 277 277 277 277 277 277 276 275 274 272 274
287 287 286 287 286 286 284 283 282 282 282 282 283 284 285 286 285 286 286 286 286 287 288 288 288 288 288 289 289 288 288 287 287 287 286 286 287 287 286 286 286 285 285 285 284 283 283 283 282 282 281 281 281 281 280 280 280 280 279 279 278 278 278 278 278 278 278 277 277 277 278 277 277 277 277 277 277 277 277 277 277 276 275 274 271
286 288 289 289 288 287 286 284 283 282 281 281 283 283 284 285 285 285 285 285 286 287 287 287 287 287 287 288 288 288 287 287 287 287 286 285 285 286 285 284 285 284 284 284 284 283 283 283 282 281 281 280 280 280 280 280 279 279 279 279 279 278 278 278 278 278 277 277 277 277 277 277 277 277 277 277 277 277 277 277 277 276 277 274 274
290 290 289 289 288 287 287 286 285 283 282 281 282 282 283 283 283 284 285 285 285 286 285 286 286 287 288 287 287 287 287 287 286 286 285 285 285 285 285 285 284 284 284 283 283 283 283 282 282 281 280 280 280 280 280 279 279 279 279 278 278 278 278 277 277 277 277 277 277 277 277 277 277 277 277 277 277 277 277 277 277 277 277 276 275
288 288 288 288 288 288 287 286 286 284 283 283 282 282 282 283 283 283 283 283 282 283 283 285 285 286 287 286 286 287 287 286 286 285 285 285 285 284 284 284 284 284 284 283 283 283 283 282 282 281 280 280 279 279 279 279 279 279 278 278 278 278 277 277 277 277 277 277 277 277 277 277 277 276 276 277 277 277 277 277 277 277 276 276 276
287 287 287 287 288 288 288 288 288 287 286 285 283 282 282 282 282 282 283 282 282 282 283 284 283 285 285 286 286 286 286 286 285 285 285 285 284 284 284 284 283 283 283 283 283 283 282 282 282 281 280 280 279 279 279 279 279 278 278 278 277 277 277 277 277 276 277 277 277 276 276 276 277 276 276 276 276 276 276 276 276 276 276 276 275
287 286 286 287 287 288 288 289 289 289 289 288 287 285 284 283 283 283 282 282 282 283 282 282 283 284 284 285 286 285 285 285 285 285 285 285 284 284 284 283 283 283 283 283 283 282 282 282 281 281 280 280 280 279 279 279 279 278 278 278 277 277 277 276 276 276 276 277 276 276 276 276 276 276 276 275 275 275 275 275 275 275 275 275 276
286 285 286 286 286 287 287 287 287 288 288 288 288 288 287 286 284 282 282 283 282 283 282 283 283 284 284 284 285 285 285 285 285 285 285 285 285 284 284 283 283 283 283 283 283 282 282 282 281 281 280 280 280 279 279 279 279 278 278 277 277 277 277 276 276 276 276 276 276 276 275 275 275 275 275 275 275 274 274 274 274 274 274 274 274
285 285 285 286 286 286 287 286 287 287 287 287 288 288 288 287 286 283 283 283 283 283 283 283 283 284 284 284 284 284 283 284 284 285 285 285 285 285 284 284 283 283 282 283 283 282 282 282 281 281 281 280 280 279 279 279 279 278 278 278 277 277 277 277 277 277 276 276 276 275 275 275 275 274 273 273 273 274 273 273 273 273 273 272 272
283 284 284 284 285 285 285 286 286 286 287 287 287 287 287 287 287 286 285 284 283 283 283 283 283 283 284 284 284 284 284 284 284 285 285 285 285 285 284 283 283 282 282 282 282 282 282 281 281 281 281 281 280 280 279 278 279 279 278 278 277 277 277 277 277 277 278 276 276 276 275 274 274 274 272 272 272 272 272 271 271 271 271 271 271
283 283 283 283 284 284 285 285 286 286 286 287 287 286 287 287 287 287 287 287 286 285 283 283 283 283 284 283 284 284 284 284 285 285 285 285 285 284 284 283 283 283 282 283 282 282 282 281 281 281 281 281 281 280 279 279 278 278 278 278 277 277 277 277 277 277 277 276 276 276 275 274 274 274 272 272 271 271 270 270 270 270 270 271 270
281 282 282 283 283 283 284 285 285 286 286 286 287 286 286 286 286 286 287 287 286 286 285 284 284 283 284 284 284 284 284 285 285 285 285 285 284 284 283 283 283 283 282 282 282 282 282 282 282 282 281 281 281 280 280 279 279 278 278 277 277 277 277 277 277 276 276 276 276 276 274 274 274 274 272 271 271 270 270 269 269 269 269 269 269
281 281 281 281 282 283 283 284 285 285 286 286 287 286 286 286 286 286 286 286 287 287 286 286 285 284 284 284 284 284 285 285 285 285 285 285 284 284 284 284 283 283 283 282 282 282 282 282 282 282 282 281 281 280 280 279 279 278 278 278 277 277 277 277 276 276 276 276 275 275 274 274 274 274 272 271 271 270 269 268 268 268 268 268 268
280 280 281 281 281 282 283 283 284 285 285 285 286 286 286 286 286 286 286 286 286 286 286 286 285 285 285 285 285 285 285 285 285 285 284 284 284 284 284 283 283 283 283 282 282 282 282 282 282 282 282 281 280 280 280 279 278 278 278 277 277 277 277 276 276 275 275 275 275 274 274 273 274 275 276 274 274 273 269 268 268 268 268 268 267
280 280 281 281 281 282 282 283 283 284 284 285 285 285 285 285 286 286 285 286 286 286 286 286 286 286 286 285 285 285 285 285 284 284 284 284 284 284 283 283 283 282 282 282 281 282 282 282 282 281 281 281 280 280 281 283 282 279 278 278 277 277 277 276 275 274 274 274 274 274 274 276 276 277 277 277 277 276 275 271 269 268 268 267 266
280 281 281 282 282 282 283 283 283 284 284 285 285 285 285 285 285 285 285 286 286 286 286 285 285 286 286 286 285 285 285 284 284 284 284 284 283 283 283 282 282 282 281 281 281 281 282 282 281 281 280 280 280 280 283 284 284 284 279 278 277 276 276 276 275 274 274 273 273 273 273 276 276 277 276 278 278 278 277 275 275 273 272 268 266
281 281 282 282 282 282 283 283 284 284 285 285 285 285 284 284 285 285 285 286 286 285 285 285 285 285 285 285 285 285 284 284 284 283 283 283 283 282 282 281 281 280 281 281 281 281 281 281 281 281 280 280 280 282 284 285 285 285 282 279 278 277 276 276 275 275 274 274 273 272 273 274 275 275 275 276 277 278 278 277 276 276 275 275 274
281 281 281 282 282 283 283 284 284 285 285 285 286 285 284 285 284 285 285 285 285 284 284 284 285 285 284 284 283 283 283 283 283 283 283 282 281 281 281 280 280 280 280 280 280 280 280 281 281 280 280 280 280 283 285 285 286 286 285 281 278 277 276 276 275 275 274 273 272 272 272 273 274 277 275 274 275 276 278 278 277 277 277 278 278
281 281 281 282 283 283 284 284 284 285 285 285 285 285 285 285 285 286 285 284 284 284 283 283 284 284 283 283 282 282 282 283 283 282 281 281 281 281 281 281 281 280 280 280 280 280 280 280 280 280 280 280 280 283 285 286 286 286 285 282 277 277 276 276 275 274 273 273 273 272 272 272 273 274 273 273 274 275 276 275 275 275 275 277 279
281 281 281 282 282 283 283 284 284 284 285 285 284 284 285 285 285 285 285 285 284 284 283 283 283 283 283 282 281 281 281 281 281 281 280 280 280 280 281 280 280 280 280 280 280 280 280 280 280 280 280 280 279 283 285 286 286 286 286 283 277 277 276 275 274 274 274 273 273 273 272 272 272 273 273 273 273 274 275 275 275 275 276 276 276
281 281 281 281 282 282 283 283 284 284 284 283 283 284 284 283 285 285 284 284 284 284 284 283 282 282 282 282 280 280 280 279 279 278 278 280 280 280 280 280 280 280 280 280 280 280 280 280 280 280 280 279 279 283 285 286 286 287 286 280 276 276 275 275 274 273 273 273 273 273 272 272 272 273 276 278 276 274 273 272 271 271 271 272 272
282 281 281 282 282 283 283 283 283 283 282 282 283 283 282 283 283 283 283 283 283 283 283 283 282 282 281 281 280 279 279 279 278 277 278 278 279 279 279 279 279 279 279 279 279 280 280 280 280 279 279 279 278 282 285 286 286 286 285 278 276 275 274 274 273 274 273 273 273 273 273 272 272 272 277 279 278 276 270 269 269 268 268 268 270
281 281 281 281 282 282 282 282 281 282 282 282 282 281 281 281 281 281 280 281 281 282 283 282 281 281 281 280 279 278 278 278 278 277 277 278 277 278 278 278 278 278 278 278 279 279 279 279 279 279 279 278 277 280 284 285 286 286 284 276 275 274 274 273 272 273 273 273 273 275 274 273 272 272 278 280 279 275 270 269 269 268 268 269 271
280 280 280 280 281 281 281 281 280 280 280 281 280 279 279 278 278 278 278 279 280 281 282 281 281 281 280 279 278 277 277 277 277 277 276 276 276 277 276 275 277 277 278 278 278 278 277 278 278 278 280 279 277 279 284 285 286 287 283 275 275 274 273 272 272 272 273 273 274 275 276 274 273 274 280 281 281 276 270 270 270 270 269 270 272
280 280 280 280 280 280 279 279 279 279 279 279 278 278 277 277 276 277 277 277 279 280 281 281 280 280 280 280 279 277 277 276 276 276 275 275 274 273 273 274 275 276 276 276 276 277 276 276 277 277 277 278 277 278 282 285 286 287 284 276 275 274 272 272 272 271 271 272 273 274 276 278 277 278 280 281 281 278 272 272 272 271 271 271 274
279 279 280 279 278 278 277 278 278 278 277 277 276 276 275 275 275 275 275 277 278 278 278 277 278 280 281 280 279 277 277 276 276 275 275 274 273 274 272 272 273 272 272 273 274 274 275 275 275 276 276 277 277 277 280 285 286 287 284 278 274 274 273 272 272 271 272 272 272 273 274 278 279 279 280 281 281 281 277 274 274 273 274 274 275
278 279 278 277 276 276 276 277 277 277 276 275 275 274 273 273 273 273 275 276 276 276 275 275 277 280 280 280 279 278 277 277 276 274 273 274 272 273 273 273 273 272 273 273 273 273 273 273 273 274 275 275 277 278 279 284 286 286 284 280 275 274 274 273 272 272 272 272 272 273 274 277 280 280 280 281 281 281 280 276 275 278 278 278 275
275 275 276 275 274 274 274 274 275 275 274 274 273 272 272 272 272 273 274 275 274 273 273 274 277 279 278 278 278 278 277 276 276 275 274 274 272 272 272 273 273 272 273 273 273 272 272 271 271 272 272 274 274 276 280 281 285 286 284 281 279 277 278 274 273 272 272 272 273 273 274 279 280 280 280 281 281 281 281 277 279 279 278 279 274
274 274 274 273 272 273 272 273 273 273 273 272 272 271 271 271 271 273 273 273 272 271 272 273 275 275 275 275 276 277 277 276 275 275 275 274 273 272 272 272 271 271 271 271 270 270 270 269 269 270 270 271 272 273 278 281 283 286 285 282 281 280 280 275 274 273 274 273 273 273 275 279 280 280 280 280 281 281 279 280 280 279 279 277 268
273 272 272 271 270 270 270 270 271 271 271 271 271 270 270 269 270 271 271 270 270 270 270 271 272 272 272 273 274 275 276 276 275 275 274 274 273 272 272 272 271 271 271 271 270 270 270 270 270 270 270 270 271 272 274 278 282 284 286 283 282 281 280 279 274 273 274 274 275 276 277 280 280 281 280 281 281 280 280 279 279 279 276 267 265
272 271 271 270 269 268 268 268 268 269 269 269 269 268 267 268 269 269 269 268 268 268 269 270 270 270 269 270 271 272 275 276 275 274 274 275 274 273 273 272 272 272 272 272 271 271 270 271 271 271 270 270 271 272 273 275 280 282 284 283 282 281 281 279 276 274 276 277 278 278 278 279 280 280 279 277 276 276 279 278 278 275 268 265 263
270 270 270 268 268 267 267 267 267 268 268 268 267 267 267 268 267 267 267 267 267 267 267 267 266 266 267 268 269 270 272 275 275 274 274 274 274 273 273 272 272 272 272 272 272 271 271 271 270 271 270 270 270 271 272 274 276 279 282 282 281 280 281 280 276 274 276 276 276 277 276 278 278 280 277 276 276 277 275 274 270 266 264 262 262
270 269 268 267 266 266 266 265 265 267 267 266 266 266 266 266 265 265 265 265 265 265 264 264 264 264 265 266 267 270 271 272 274 274 273 273 273 273 273 272 272 272 272 272 272 271 271 271 271 271 270 269 269 270 271 272 275 277 280 282 280 279 278 276 274 274 274 275 275 277 277 276 276 274 272 271 270 268 266 265 264 263 262 261 264
268 267 267 266 265 265 265 265 265 266 265 265 264 264 264 264 264 264 264 263 262 263 263 262 262 263 263 266 267 269 270 272 273 273 273 274 274 273 273 273 274 275 274 274 273 273 273 273 273 272 270 268 269 269 271 275 275 279 280 281 279 278 278 275 275 277 274 274 274 273 271 269 267 266 265 265 264 263 263 262 261 260 260 261 261
267 266 265 265 265 264 264 264 264 264 264 263 263 263 263 263 262 262 262 261 261 261 260 261 261 262 264 265 267 269 270 272 273 273 273 273 275 278 276 274 274 276 278 278 278 274 274 274 273 273 273 270 270 271 275 277 278 280 282 283 282 281 280 276 277 279 275 272 270 269 268 267 266 265 264 264 263 263 261 260 260 263 260 258 259
265 264 264 263 263 263 263 262 262 263 262 262 261 261 261 261 261 261 261 260 260 260 260 260 261 262 264 265 267 268 269 271 272 272 273 272 273 274 278 280 278 277 277 278 279 279 279 278 274 272 274 277 275 275 276 277 279 280 282 283 283 282 280 279 279 275 272 270 269 268 267 266 266 265 265 264 263 262 261 261 260 261 260 261 261
Wind_Speed
19 10 10 8 7 8 8 8 8 7 9 10 12 13 14 16 13 15 13 12 12 12 12 13 14 11 8 11 14 12 12 11 10 11 11 11 12 11 11 10 10 10 9 9 9 9 8 8 8 7 7 7 7 8 6 6 5 5 6 3 4 3 2 2 0 1 4 2 3 5 5 4 3 2 4 5 4 3 4 6 5 7 6 7 6
11 11 12 7 6 7 6 6 6 7 9 9 13 15 14 12 15 15 11 14 15 16 15 14 14 16 17 18 15 13 12 13 13 11 12 10 10 10 10 9 10 10 9 9 9 10 9 9 9 10 9 8 7 5 5 5 5 6 6 4 1 3 2 0 1 2 4 2 3 1 4 3 2 3 4 5 4 3 4 6 6 7 7 6 5
15 12 11 6 6 6 5 6 6 10 9 13 14 11 12 13 13 11 13 14 14 14 13 15 13 10 9 6 10 7 6 6 4 5 5 7 7 8 8 8 10 9 10 10 10 10 10 10 9 9 9 8 8 8 7 8 8 9 8 7 5 1 2 0 1 0 6 3 2 4 1 1 0 1 2 3 4 2 3 5 4 6 7 5 5
20 12 12 12 6 5 3 4 7 6 6 6 7 11 11 12 12 13 13 14 13 13 13 8 7 5 3 4 4 5 5 4 4 4 6 6 7 8 8 9 10 10 10 10 9 10 11 11 9 9 10 9 9 9 10 10 9 8 7 5 7 5 2 0 1 1 4 8 2 2 2 1 0 1 2 3 1 2 3 4 3 4 5 6 5
15 18 17 15 7 3 5 6 3 6 9 10 10 12 11 15 15 16 14 15 13 13 14 10 9 7 6 6 6 7 5 6 5 5 8 7 7 8 10 9 11 11 12 13 12 12 11 10 11 10 10 10 9 9 10 11 11 9 9 7 8 9 6 2 0 2 1 2 7 5 3 0 3 2 1 1 2 1 2 2 2 3 5 6 5
12 15 16 14 7 4 1 4 6 9 11 12 11 13 11 11 11 11 10 11 13 14 15 13 13 13 12 10 10 9 8 10 14 16 12 13 16 12 11 13 13 12 12 12 11 11 12 11 11 11 10 9 9 9 7 5 7 9 10 8 7 4 8 6 3 0 0 1 0 1 3 4 5 3 2 2 1 1 0 0 1 3 4 5 4
6 8 11 12 6 4 3 6 10 10 12 7 6 7 8 7 8 11 11 10 11 12 15 13 13 13 17 17 16 17 17 15 12 9 13 13 10 12 12 11 11 12 11 11 11 11 11 10 11 11 10 9 8 7 8 10 9 9 6 6 6 6 7 6 10 6 3 3 3 3 5 4 5 7 4 2 1 2 1 0 2 3 3 3 3
9 11 11 8 6 5 8 8 7 9 5 2 5 5 6 6 7 10 9 10 10 12 15 15 15 15 14 14 12 13 14 12 12 13 11 7 10 11 10 11 11 11 12 11 11 11 11 10 10 9 9 8 8 9 9 8 6 4 5 4 3 5 7 10 8 9 9 4 2 4 5 5 5 6 3 5 4 3 2 3 1 4 5 3 1
6 9 11 9 7 6 7 6 4 4 4 3 4 4 4 4 5 5 7 7 8 12 14 14 14 14 15 13 12 10 7 4 5 5 7 7 8 5 7 8 9 9 10 11 11 11 10 11 10 10 9 9 9 8 7 6 8 8 8 7 7 6 4 4 9 9 6 8 7 3 5 5 5 4 3 3 4 3 5 3 4 3 3 3 2
5 7 8 9 6 7 5 5 5 4 2 2 2 3 4 5 6 7 6 6 6 10 11 12 12 11 12 13 13 10 7 5 7 7 7 8 10 9 9 8 9 9 9 9 10 10 11 10 10 11 11 10 9 9 7 7 7 7 9 8 7 7 4 6 8 7 5 7 7 9 6 4 5 2 1 3 2 1 3 3 2 2 3 3 1
7 7 6 6 5 6 4 4 4 4 3 1 3 4 4 6 7 8 7 6 6 9 10 12 10 10 12 12 13 12 10 9 9 9 8 7 9 9 9 9 8 9 9 9 10 10 10 10 10 10 9 9 9 9 10 9 9 8 8 5 6 8 7 6 4 5 6 7 7 9 10 11 10 7 9 6 5 3 3 2 4 2 3 6 1
9 7 10 12 6 3 6 7 6 4 3 3 2 3 4 4 5 6 5 6 6 6 7 9 10 11 10 10 12 11 12 11 14 14 14 14 13 12 9 8 9 8 8 9 10 11 11 10 10 10 11 11 11 10 9 9 8 7 7 7 7 5 5 6 6 7 7 7 6 6 7 5 5 6 8 9 9 6 7 6 6 2 3 5 4
8 8 8 8 10 8 7 6 5 5 4 3 2 3 4 4 5 8 7 8 10 10 12 11 11 12 12 11 11 11 12 13 13 13 12 13 13 12 12 12 10 10 11 12 12 15 13 12 13 13 12 12 12 11 10 10 9 8 8 8 7 8 9 9 9 9 10 10 10 5 5 5 5 4 7 8 4 6 6 5 3 3 5 2 2
7 8 6 6 8 8 2 2 2 1 2 1 2 3 3 3 5 6 7 7 8 10 12 13 14 13 11 11 11 11 12 12 12 12 12 12 12 14 15 15 15 16 15 16 15 15 14 15 14 14 13 12 12 12 11 10 10 9 9 9 9 8 6 7 7 7 6 5 5 7 6 6 5 6 7 8 8 8 5 6 6 4 3 4 3
6 8 8 8 8 6 4 3 1 0 0 1 2 4 5 4 4 5 5 5 7 10 10 13 13 12 11 11 11 10 11 10 11 10 11 12 11 12 12 12 13 13 14 13 13 15 14 12 13 13 13 13 12 11 10 10 9 8 7 8 6 6 7 7 6 8 8 7 6 6 7 5 6 6 7 7 7 7 7 7 8 5 2 3 3
8 7 8 8 6 5 4 4 3 0 1 1 3 4 6 7 7 9 10 10 10 9 10 12 12 11 12 13 13 10 8 7 7 7 8 10 12 13 14 14 12 11 10 10 11 13 13 13 12 12 11 11 11 12 11 10 10 10 8 7 8 5 8 8 7 7 7 8 7 6 6 6 5 6 5 6 6 5 5 5 5 4 4 4 1
8 7 7 7 7 9 9 6 3 1 1 4 5 5 6 7 8 8 8 8 11 11 12 10 10 10 12 12 11 11 11 11 11 10 9 9 10 10 10 11 9 9 9 9 11 11 11 11 12 11 11 11 11 11 11 10 10 10 9 9 9 7 7 9 7 8 6 7 6 8 7 7 6 5 5 5 5 4 4 4 5 6 5 3 0
8 10 12 14 13 14 13 10 8 7 4 4 4 4 4 5 7 8 8 10 9 10 10 10 10 10 10 11 11 12 11 11 10 10 9 9 9 9 7 8 10 9 9 10 11 12 12 12 11 11 10 11 11 10 10 10 10 9 9 9 7 7 7 5 6 7 7 7 6 6 6 7 6 6 6 5 5 5 6 5 5 2 4 5 4
16 16 15 15 15 14 14 14 11 8 8 8 9 7 5 4 4 4 7 6 6 6 6 7 8 9 9 11 12 12 11 10 9 8 8 10 12 11 11 11 9 11 11 11 12 12 13 13 12 12 11 11 10 11 10 10 10 10 9 9 8 8 8 8 7 7 7 7 8 8 6 6 6 6 6 6 5 6 6 6 5 4 3 3 5
15 15 15 15 16 16 14 15 16 14 10 8 7 7 8 8 7 7 7 5 4 5 4 7 8 8 9 8 10 11 11 11 10 9 10 12 11 11 10 9 12 9 11 12 13 14 14 14 12 12 12 11 12 11 11 11 10 10 10 9 9 10 9 9 8 6 6 7 8 9 8 7 7 6 6 6 6 6 6 6 6 6 4 3 4
14 14 15 16 17 17 18 16 15 13 11 11 9 8 7 7 7 7 8 7 6 5 4 6 4 7 7 11 11 10 12 10 9 11 12 12 10 10 10 9 6 11 10 12 12 13 14 14 14 14 14 14 14 13 11 11 11 11 10 10 10 11 11 8 8 8 6 8 8 8 8 7 8 8 7 7 7 7 6 6 6 6 6 6 6
13 13 13 15 16 18 19 19 18 18 18 18 14 12 11 9 8 8 8 7 7 7 4 4 5 6 9 11 10 7 8 8 11 11 13 12 12 13 13 10 13 11 12 13 13 12 13 14 14 14 14 14 14 14 14 13 14 13 12 10 11 12 11 10 10 10 9 8 9 10 9 8 9 9 9 9 8 8 8 7 7 7 7 7 6
14 14 13 14 14 14 14 15 16 17 17 17 16 15 14 14 11 7 7 9 6 8 6 5 6 7 9 7 7 9 7 9 11 12 13 14 13 12 11 14 13 12 12 13 14 13 14 14 14 14 15 15 16 15 14 14 14 16 16 13 13 14 14 14 13 13 12 10 10 10 10 9 8 9 9 8 8 8 7 8 7 6 7 6 6
15 15 15 14 13 14 17 19 18 17 16 16 15 14 13 12 12 9 9 10 9 9 9 8 8 9 9 8 10 8 6 9 11 13 14 14 13 11 11 13 13 12 14 13 14 15 14 15 15 15 16 16 15 15 15 15 16 16 15 16 14 14 14 14 14 13 13 13 13 12 11 11 10 10 9 9 8 8 8 7 7 6 6 6 5
18 18 17 17 18 18 16 15 15 14 13 13 13 13 12 12 11 12 9 8 8 8 8 9 9 11 11 10 11 10 11 13 14 13 15 14 12 12 11 14 12 13 14 13 14 15 16 16 17 18 18 17 17 16 16 15 14 14 15 15 15 14 14 14 14 14 13 14 14 14 13 12 12 11 9 9 9 10 8 8 8 7 7 6 5
17 18 19 19 15 14 15 15 13 13 13 13 12 11 11 10 11 9 11 11 10 8 8 9 9 11 12 12 12 10 13 15 16 16 16 14 11 10 10 9 11 14 13 14 15 14 16 18 18 17 17 17 16 16 17 17 17 15 14 14 14 14 14 14 14 13 14 13 14 14 13 14 14 14 13 10 10 11 9 8 8 8 7 6 7
14 14 14 16 20 20 17 16 15 14 14 13 13 14 14 13 13 12 13 12 10 10 10 9 10 10 12 12 11 12 13 14 15 15 13 11 12 12 11 12 10 11 13 13 13 14 13 15 17 16 17 18 17 17 16 16 16 16 16 16 16 16 15 14 13 14 13 13 13 12 13 14 14 13 13 13 12 11 10 10 9 9 8 7 7
16 16 17 15 15 16 18 18 18 17 17 16 14 13 13 13 13 13 13 13 12 12 12 11 11 11 11 12 11 12 13 14 14 13 12 12 12 12 14 13 12 14 14 15 15 16 14 13 14 15 16 15 15 15 15 16 16 17 17 17 17 17 17 15 14 13 13 13 13 12 12 13 13 12 12 11 13 12 9 9 8 8 8 8 6
17 16 15 14 14 13 15 16 16 16 18 17 16 15 15 14 12 13 13 14 13 13 14 13 12 11 12 12 11 11 11 12 12 12 12 13 13 12 12 11 12 13 12 13 12 12 12 14 13 14 14 13 15 16 16 16 17 17 16 17 17 17 16 16 15 14 13 12 12 11 10 11 11 12 14 12 12 12 11 11 8 8 8 7 6
14 14 14 13 14 14 13 14 15 16 17 17 16 16 15 15 15 16 16 14 14 13 13 14 14 13 12 11 12 11 11 11 12 13 13 13 12 12 12 13 14 14 12 11 11 12 13 14 15 14 14 13 14 13 14 22 20 17 17 14 13 14 15 15 15 14 13 12 12 11 10 16 17 17 17 18 18 17 14 10 11 10 9 8 7
10 12 14 14 14 14 14 15 15 15 16 15 15 15 15 14 14 15 15 15 13 13 13 12 14 13 14 13 12 11 11 12 12 12 11 11 12 10 11 12 12 12 13 12 12 14 15 14 14 14 15 14 13 12 18 23 25 24 17 15 15 14 14 14 14 15 15 14 12 12 10 14 16 16 15 20 18 18 17 16 17 16 13 11 10
12 12 12 14 16 16 15 16 16 16 16 15 16 16 15 15 15 15 15 13 14 14 15 14 14 15 15 14 12 12 11 12 11 11 11 11 10 10 11 11 11 12 11 10 13 15 13 12 12 14 15 14 13 13 21 23 24 24 20 15 14 13 14 14 14 14 13 14 14 10 9 10 10 12 11 13 16 20 18 17 18 18 18 18 15
12 12 12 13 13 14 15 15 14 15 16 16 15 15 15 15 17 16 15 14 13 13 14 14 14 14 14 13 13 12 11 11 11 11 10 8 9 10 11 10 12 11 10 13 14 12 13 13 12 14 14 13 11 15 23 26 26 27 26 19 12 13 14 14 14 14 14 10 8 8 8 8 9 19 13 10 10 13 17 19 17 18 18 18 17
10 10 11 11 11 12 13 14 14 14 14 14 14 14 14 13 13 13 13 14 14 14 12 13 13 13 14 13 13 12 12 11 10 9 8 8 8 11 10 9 8 8 11 12 11 14 12 13 14 13 12 11 12 15 23 24 24 25 25 20 12 14 13 14 14 15 12 10 11 10 11 9 9 12 10 11 10 11 12 12 13 12 11 15 18
10 10 11 11 12 12 12 12 13 13 13 13 14 14 14 15 14 15 13 13 13 13 12 11 13 13 13 13 14 13 13 12 9 7 7 7 8 8 8 8 8 11 12 13 14 14 14 14 13 13 12 12 12 17 23 25 25 25 26 20 12 11 10 10 9 8 8 8 10 8 8 8 11 12 11 14 12 12 11 10 10 10 8 8 8
9 11 11 12 12 12 12 13 12 12 12 12 13 13 14 16 15 13 14 13 13 13 12 11 13 13 13 13 13 13 13 12 10 7 6 8 7 7 8 7 7 8 8 8 9 10 12 13 13 13 14 14 11 20 23 25 26 24 25 13 11 11 11 10 11 8 6 7 8 10 10 12 10 9 17 23 17 11 10 10 10 8 6 4 4
9 8 11 10 10 10 11 11 12 12 13 13 13 13 15 16 15 14 14 14 13 13 13 13 13 13 14 14 13 13 13 12 10 9 8 8 7 7 6 4 6 7 8 10 10 11 11 12 14 14 15 13 10 18 24 25 25 28 22 10 11 10 10 11 11 13 9 9 9 10 9 8 10 9 19 23 23 20 10 11 10 9 7 5 5
9 9 9 10 10 9 9 10 11 12 12 12 12 13 14 15 15 15 14 14 13 13 12 12 13 14 14 13 12 11 12 11 10 10 10 8 6 4 5 4 7 8 9 9 8 9 9 10 12 13 14 12 11 16 25 26 29 30 20 13 12 11 11 10 9 6 7 7 10 20 14 10 11 11 23 23 23 18 12 12 10 10 9 8 7
9 10 12 11 10 10 10 9 9 11 11 10 12 14 14 14 14 14 14 14 14 13 13 14 14 14 14 13 12 11 10 10 10 10 9 9 7 6 4 3 6 6 7 6 7 8 8 8 10 11 11 13 10 14 24 26 28 30 20 12 12 11 11 10 11 7 6 7 10 14 19 15 13 16 25 24 24 17 11 11 11 10 10 10 9
10 10 10 11 12 11 11 10 11 12 10 10 11 12 14 15 15 14 14 14 13 13 14 14 15 14 13 12 11 11 11 10 11 10 8 8 6 4 5 5 5 5 5 5 6 7 8 8 7 9 10 11 11 11 18 27 29 31 25 14 12 13 13 13 11 12 11 7 8 11 16 21 22 24 25 27 26 23 13 10 10 9 10 11 9
11 12 10 10 10 10 12 12 11 11 10 8 9 10 12 13 14 15 16 14 14 14 15 16 16 15 13 13 11 10 12 11 9 10 8 6 5 5 5 5 6 5 4 5 6 6 7 6 6 7 8 9 9 11 16 27 28 30 29 21 12 13 12 12 13 13 11 9 12 11 10 21 24 25 25 27 26 26 20 13 12 10 9 8 9
10 11 11 9 10 11 12 13 11 11 11 9 9 11 12 12 13 15 15 14 14 14 15 17 18 14 13 13 13 12 10 10 9 8 8 7 5 5 6 6 6 5 6 7 5 5 5 5 4 6 7 9 9 14 12 21 27 29 29 26 14 13 13 13 13 13 12 12 11 12 12 19 26 25 24 24 25 25 24 11 12 15 15 16 9
13 13 12 10 11 13 13 14 13 11 10 10 10 13 14 12 14 15 13 13 14 15 17 18 17 14 14 15 14 13 12 9 9 7 8 9 6 5 5 5 6 6 6 6 6 5 5 5 4 5 5 6 7 9 16 15 25 28 29 27 22 15 21 14 14 14 14 10 8 8 11 23 25 25 25 25 23 24 20 12 20 19 17 17 11
11 11 12 8 9 11 13 14 15 14 11 10 10 13 14 15 17 13 11 13 14 16 17 19 17 15 16 16 16 15 12 9 9 8 8 9 7 6 6 6 6 6 6 6 5 5 5 6 7 6 6 6 7 8 13 18 18 28 27 27 25 22 22 13 11 11 11 8 9 12 14 25 26 25 26 24 23 21 14 19 20 19 20 14 8
14 14 10 6 9 12 13 15 16 16 14 11 9 11 16 20 16 10 12 13 15 17 17 19 18 17 17 16 16 16 14 11 9 8 9 9 8 7 7 6 6 6 6 7 7 6 8 8 8 9 8 7 7 8 9 14 19 22 29 27 27 24 23 20 11 7 7 9 11 18 22 25 25 25 24 23 20 21 21 20 20 21 14 7 8
12 13 12 8 10 11 13 16 18 17 15 10 9 9 15 18 15 13 13 15 16 17 18 17 17 18 18 17 20 19 17 13 11 8 10 9 9 9 8 7 7 8 8 8 8 8 8 8 9 8 8 8 8 8 9 10 13 16 20 27 27 25 24 23 16 11 16 19 21 23 26 25 23 21 16 12 9 11 19 19 20 17 8 8 7
15 15 12 12 12 14 16 16 17 19 16 11 13 13 14 14 14 12 13 15 17 17 17 17 17 17 18 19 17 16 15 13 11 9 9 9 9 8 8 8 9 9 9 9 9 9 9 9 9 9 8 8 8 9 9 10 10 11 11 16 19 19 24 22 13 11 14 13 17 17 15 19 14 20 14 11 11 13 13 12 8 7 7 7 7
15 14 11 12 14 15 16 16 16 19 14 14 13 15 14 14 13 13 13 14 16 17 17 18 19 17 16 16 18 19 20 14 12 10 10 10 9 10 10 11 11 12 11 11 11 11 12 12 11 9 8 8 8 9 10 11 12 11 11 10 13 13 14 13 13 13 12 13 13 15 18 13 12 10 9 7 6 5 6 7 7 6 6 6 7
17 15 11 13 13 16 15 17 18 17 14 14 15 13 12 12 12 12 13 15 17 18 18 20 19 15 15 15 14 15 14 14 12 10 10 11 11 11 12 12 11 10 11 12 12 12 12 11 10 10 11 12 10 12 14 13 14 17 16 13 13 13 13 11 15 19 13 12 12 11 9 8 8 9 9 8 7 7 5 6 7 6 6 6 6
16 11 13 13 14 14 17 17 19 14 14 15 17 16 14 11 10 11 11 14 16 18 18 18 16 15 14 12 12 11 13 13 12 12 11 11 14 19 14 12 11 14 19 17 13 11 11 10 11 11 12 15 16 13 10 19 21 21 23 20 17 19 17 14 22 29 17 13 12 11 11 11 10 10 10 10 9 8 7 6 5 7 6 6 6
14 13 15 14 14 15 14 18 17 17 15 17 17 18 16 12 8 9 10 13 16 15 16 16 16 14 15 15 14 13 12 12 12 12 11 12 11 11 23 27 22 14 15 20 21 20 16 15 13 10 11 18 11 10 17 21 23 24 25 25 21 24 24 26 29 20 14 13 13 14 13 12 12 11 11 11 9 9 8 8 7 6 6 7 6
Wind_Direction
267 283 274 259 241 228 226 214 217 209 206 194 194 196 193 194 184 196 188 176 175 174 180 177 178 178 181 193 200 192 189 186 188 193 192 194 185 183 179 179 173 169 167 164 164 157 158 154 155 164 163 168 177 190 180 177 178 168 152 139 131 108 54 5 12 114 113 68 26 57 50 35 46 68 44 32 32 42 61 66 66 61 45 44 32
282 278 271 263 246 236 226 216 192 199 217 198 201 199 197 188 191 193 173 183 185 185 183 185 190 188 185 193 193 184 181 184 195 194 196 190 185 182 177 172 169 170 167 167 163 163 160 165 168 171 170 177 180 167 169 177 173 172 164 103 31 131 130 258 273 129 32 125 126 2 11 5 57 61 42 12 2 22 52 70 69 70 56 44 39
280 272 281 283 255 248 225 219 214 214 208 203 207 195 195 195 200 181 185 184 190 186 182 193 191 191 194 187 181 174 191 200 188 176 170 179 178 175 171 170 168 168 168 170 167 172 169 165 175 168 174 167 165 176 178 184 187 184 187 154 122 49 124 180 8 185 140 135 121 87 9 40 329 6 3 24 355 11 16 62 71 77 71 56 55
285 298 295 286 252 252 253 254 229 226 227 220 207 201 198 203 194 187 188 187 184 188 190 186 176 156 126 108 128 131 161 148 125 131 151 151 175 175 180 173 169 171 171 172 174 174 172 175 167 171 176 176 176 176 183 188 186 193 193 193 149 129 151 75 37 355 133 142 65 105 180 114 31 301 331 292 323 351 28 46 60 76 70 55 48
299 297 290 288 292 282 236 243 241 226 224 219 203 202 201 201 196 190 186 186 185 180 177 159 140 128 110 89 96 88 83 130 135 171 176 172 167 187 188 172 176 175 176 181 177 177 176 173 172 176 174 179 176 183 188 193 190 190 183 176 187 149 171 155 65 37 60 274 142 111 70 64 211 216 55 293 3 22 355 356 82 75 60 54 49
254 272 276 286 329 335 229 240 224 231 231 222 209 209 202 202 194 188 185 183 183 178 171 163 167 163 156 154 163 174 176 176 192 192 174 182 196 187 182 186 181 180 180 179 179 174 178 178 175 172 178 177 184 190 187 176 191 190 195 186 179 195 144 149 125 88 102 48 353 132 160 169 181 217 131 197 320 222 286 151 82 88 63 53 45
267 271 288 296 308 325 269 226 228 232 236 226 219 219 214 203 190 187 184 183 178 175 170 168 171 177 181 185 185 186 190 203 199 179 185 196 184 181 186 180 182 176 178 178 180 180 177 177 178 178 177 178 178 175 187 197 193 196 178 191 188 153 140 136 156 163 103 27 30 47 60 53 116 129 198 93 306 295 356 337 42 23 35 34 34
306 292 284 281 289 278 270 248 237 242 270 230 229 224 212 200 182 185 184 182 180 172 176 177 178 181 185 192 194 199 202 197 182 189 190 180 181 183 176 182 179 178 174 180 180 179 177 177 176 174 174 178 174 189 196 194 185 192 196 200 174 181 167 149 159 169 156 158 74 73 68 65 51 69 100 157 152 163 264 327 26 12 359 357 78
267 277 285 292 289 282 278 291 298 300 279 229 225 208 190 180 180 181 186 180 179 178 179 185 184 182 185 188 197 209 203 180 170 159 173 165 175 167 178 178 179 180 177 177 179 178 178 177 173 173 175 178 183 187 193 184 189 181 182 183 188 191 186 156 146 180 164 155 135 72 80 59 53 49 64 76 127 129 270 272 287 337 351 356 71
246 252 274 292 296 295 314 313 330 305 276 206 168 155 159 156 167 171 182 176 175 181 184 189 189 182 187 193 196 190 170 141 154 166 169 167 177 173 174 174 181 179 179 178 177 182 178 173 175 179 181 178 181 185 177 181 190 194 194 190 182 177 174 167 168 165 166 153 159 148 132 112 67 41 37 95 58 92 172 234 277 348 332 279 307
320 321 298 269 276 303 321 341 330 338 357 89 125 144 149 155 163 170 176 168 174 183 184 188 191 194 199 196 194 187 176 160 161 171 161 168 182 179 178 181 178 184 176 180 182 178 178 177 179 181 178 177 179 176 185 187 192 192 190 185 189 180 174 164 136 151 148 158 163 166 164 168 169 170 180 181 154 145 109 253 281 258 216 307 259
328 328 324 324 331 348 1 357 358 347 7 30 72 101 122 139 143 159 157 161 159 173 183 192 195 201 204 200 198 193 178 179 181 180 180 180 179 178 177 169 183 177 177 180 184 181 179 181 180 177 179 180 186 183 182 184 184 182 181 189 190 186 156 156 152 157 167 168 179 183 179 168 148 151 169 165 168 175 152 156 182 257 287 226 258
320 326 330 336 326 334 358 343 356 6 4 17 48 87 109 129 152 163 178 168 170 173 183 190 197 204 202 201 203 194 191 191 190 185 182 181 179 176 174 183 174 179 190 188 192 183 181 180 182 183 185 188 183 180 184 177 177 181 184 187 187 183 180 171 170 178 172 175 182 180 160 167 162 136 141 150 135 128 139 132 202 179 218 279 272
312 315 333 331 309 314 352 312 325 352 26 45 74 99 112 137 157 176 189 180 175 180 185 190 200 202 201 204 204 198 200 196 196 188 185 186 182 183 183 183 183 192 187 195 189 183 188 190 184 186 187 182 183 183 178 177 175 180 181 184 189 188 169 175 173 165 173 166 146 158 171 165 149 152 146 143 150 138 153 168 151 204 207 242 256
352 337 329 322 303 285 293 309 326 324 132 125 136 131 134 146 164 180 185 197 189 193 191 197 199 198 200 205 206 206 206 201 202 194 184 186 187 185 190 189 192 195 193 193 178 186 189 184 188 187 183 182 178 178 178 175 175 173 180 186 179 174 176 166 166 166 168 165 166 165 157 152 159 159 152 158 158 170 160 165 154 153 233 212 249
345 329 328 326 304 298 320 357 337 257 194 190 176 171 163 177 180 189 189 189 193 196 205 203 202 198 200 201 206 205 209 207 209 203 198 195 190 189 190 192 196 191 190 179 184 182 186 187 185 189 182 180 182 179 175 174 173 173 176 176 180 174 171 174 172 170 171 168 164 153 150 164 161 160 156 151 158 153 146 147 152 149 170 273 260
334 319 315 316 342 359 5 348 327 313 243 210 210 201 190 184 186 196 199 194 197 198 201 204 207 206 209 206 201 203 204 203 204 203 197 197 195 199 196 197 187 183 179 174 175 184 185 185 185 185 182 181 179 181 177 174 172 176 177 176 180 175 173 179 166 174 170 163 162 168 164 158 164 154 148 147 145 139 148 158 174 172 160 137 207
308 333 347 358 6 5 1 354 334 315 292 278 254 234 226 212 197 198 202 204 207 202 202 200 203 211 215 214 212 208 206 207 202 201 194 192 202 200 192 184 192 177 171 178 175 178 182 183 183 184 182 180 182 178 177 175 170 179 178 180 175 164 169 163 172 166 166 164 159 159 158 159 162 159 158 149 148 151 154 168 180 176 157 158 170
359 359 0 1 0 358 358 355 350 337 331 327 324 324 319 305 290 250 231 227 219 216 214 214 206 209 211 213 212 213 211 209 205 196 190 197 201 200 198 194 177 178 176 172 174 178 181 183 182 181 178 181 179 179 175 175 176 175 175 174 166 167 171 175 175 169 167 163 164 167 163 160 161 157 148 150 151 152 160 161 166 160 181 144 149
8 6 5 4 5 8 9 6 4 356 346 342 340 339 333 323 319 311 310 313 293 254 238 233 227 222 218 214 221 217 214 208 202 195 200 206 205 201 198 192 195 179 182 176 179 180 181 180 182 179 178 178 178 179 177 177 176 182 173 173 172 169 176 176 172 173 164 170 166 171 174 165 160 152 155 159 161 161 158 164 167 168 176 167 146
14 11 7 5 6 6 8 10 12 10 11 10 8 350 326 324 314 313 302 290 278 275 267 265 271 254 242 231 223 216 218 212 208 203 203 205 202 201 203 200 165 192 178 182 181 182 181 182 180 182 180 180 179 178 179 175 179 179 177 175 168 175 178 175 166 170 170 169 174 174 174 169 160 161 164 161 165 164 161 164 164 166 173 175 172
14 10 8 6 6 5 7 9 10 11 8 8 7 4 356 341 323 315 314 307 303 290 268 271 270 273 265 254 244 237 229 221 219 213 214 210 204 199 195 181 193 188 181 184 183 182 183 181 182 184 183 183 183 182 180 178 179 179 178 176 176 177 178 174 171 177 174 176 175 175 176 170 174 167 164 171 168 165 167 161 174 172 176 180 181
12 12 10 9 7 7 7 10 10 6 3 3 5 7 3 356 346 332 318 301 291 283 275 257 247 241 243 256 275 268 261 235 224 222 222 216 210 204 191 194 193 187 186 184 183 182 182 183 184 184 184 186 186 185 183 182 184 182 180 181 180 179 180 178 181 182 178 175 175 180 180 172 170 171 176 173 166 168 165 168 173 174 175 179 180
9 10 10 7 5 4 9 7 5 4 2 360 357 358 0 359 350 337 327 308 297 285 281 270 259 252 246 239 236 231 243 248 249 242 232 222 214 209 199 202 198 187 187 188 183 183 180 185 186 186 188 188 187 187 185 187 186 184 183 183 180 184 186 185 183 180 178 178 181 178 182 176 175 176 177 172 173 165 169 170 169 176 176 174 178
7 6 4 3 6 7 4 0 360 356 355 356 356 354 355 355 353 349 336 317 305 292 276 268 264 262 255 244 241 226 225 227 229 232 240 239 226 215 204 206 194 196 194 187 190 184 184 184 187 189 189 189 189 186 184 186 189 188 186 181 182 184 186 186 185 184 181 181 182 186 178 175 175 177 177 178 173 171 169 166 174 171 173 170 164
3 2 3 2 356 356 358 357 355 354 351 349 350 349 349 351 350 347 346 343 334 318 295 283 272 263 260 249 245 236 233 231 228 231 231 228 230 233 226 219 206 203 194 195 194 192 189 189 190 189 189 189 185 187 189 188 187 186 185 184 182 184 186 186 186 185 183 184 185 185 179 178 180 182 183 176 169 171 165 170 170 174 168 166 162
2 358 355 355 358 354 349 348 349 348 349 348 348 347 349 348 349 351 348 342 337 333 320 303 287 273 268 260 251 243 238 237 235 233 230 222 220 214 211 216 213 212 205 203 199 196 202 196 192 187 189 186 187 189 189 189 188 186 185 184 183 185 186 186 187 185 184 186 187 184 180 182 185 186 176 176 171 169 172 174 174 170 166 164 160
357 359 360 355 347 345 345 344 344 345 344 345 346 346 345 345 343 344 344 342 340 338 334 325 311 296 281 274 262 251 244 241 239 236 230 225 218 213 213 208 200 208 208 205 202 201 197 197 199 195 192 186 185 187 191 191 190 187 186 189 186 185 184 185 183 183 183 186 186 185 184 186 186 184 177 173 170 171 164 169 170 163 164 163 166
353 348 347 347 343 340 337 339 338 339 341 341 340 341 342 341 343 343 343 342 339 338 336 335 328 316 300 286 274 263 256 252 247 241 234 227 221 216 212 206 206 211 209 208 205 200 198 198 197 197 194 190 190 191 190 189 189 190 190 190 189 186 183 181 180 182 182 181 184 183 182 184 185 181 178 172 176 169 163 166 168 163 165 162 160
345 339 337 336 336 334 334 334 336 338 338 338 338 339 340 340 340 341 341 341 341 337 336 334 334 329 317 300 283 274 266 257 249 242 238 231 224 217 208 206 208 209 208 203 199 200 201 201 198 196 193 194 200 198 192 189 187 187 186 186 185 188 185 183 179 177 179 181 180 179 181 182 181 178 176 176 177 177 174 164 162 166 165 161 165
336 336 333 332 331 331 332 335 336 337 335 335 333 333 333 334 338 338 338 337 337 334 335 334 332 332 331 326 311 290 276 266 256 247 242 235 227 219 212 210 208 202 203 199 195 199 203 201 200 197 197 200 200 199 192 191 190 185 181 182 183 186 186 183 182 179 178 178 178 178 174 179 177 177 178 179 180 181 178 173 171 171 171 166 166
333 330 329 331 332 333 335 334 335 334 334 335 335 333 332 334 336 335 335 334 335 336 336 336 336 336 337 334 326 311 294 278 266 254 245 235 227 218 215 210 204 202 201 192 200 204 201 197 199 201 203 203 204 192 188 192 191 188 184 183 183 182 183 185 184 182 180 176 176 165 166 172 174 175 171 181 186 188 183 181 177 178 180 182 183
324 326 327 328 326 328 328 329 331 333 332 331 331 329 331 333 333 330 331 333 335 334 333 332 335 336 333 332 326 318 303 290 275 262 253 238 225 221 218 209 207 202 189 198 204 194 201 199 197 202 206 204 206 195 193 192 192 190 186 180 185 183 183 187 183 183 178 165 138 144 150 171 173 177 173 174 172 182 183 180 180 182 189 197 203
315 315 321 321 323 321 324 325 325 326 325 323 327 326 324 327 323 322 327 327 331 330 331 328 332 335 334 331 328 321 311 299 288 273 257 240 227 224 220 213 205 191 197 201 197 199 197 196 198 200 204 203 204 198 197 196 194 191 187 180 185 183 185 186 182 162 145 157 163 160 163 164 168 175 169 172 171 173 176 179 184 189 198 209 215
310 316 318 321 320 318 316 321 322 322 322 323 324 326 326 326 327 323 323 324 324 324 324 328 330 330 333 332 330 325 316 308 299 283 267 250 236 235 222 212 202 200 199 200 197 198 198 196 195 194 196 201 203 194 196 195 194 191 188 179 180 182 183 182 151 144 156 151 161 158 152 150 162 174 172 174 170 172 172 177 182 188 191 195 203
313 315 317 316 318 314 313 315 317 316 318 322 321 325 326 321 320 317 318 321 321 320 320 327 330 330 330 328 327 322 317 311 305 295 275 261 251 235 225 215 210 213 213 207 209 204 199 198 196 192 197 202 196 191 194 194 192 190 186 177 177 177 178 175 174 159 143 152 153 160 156 166 165 163 176 177 175 166 165 167 171 171 170 178 191
299 302 302 301 298 301 305 311 313 315 317 320 322 327 323 318 317 316 317 317 319 318 321 327 326 327 326 324 322 319 315 311 306 296 277 265 258 249 242 220 217 217 210 208 208 203 202 199 197 197 198 198 187 191 193 192 193 193 189 175 176 177 178 177 166 174 160 162 165 162 160 151 160 162 178 178 176 172 161 171 173 174 176 180 198
290 291 291 294 294 294 303 308 310 311 312 316 321 324 320 313 313 315 316 316 316 316 319 323 322 323 320 317 314 311 308 304 302 290 278 273 264 262 244 217 216 216 215 215 206 205 206 203 202 201 199 193 188 190 193 193 195 193 181 171 173 176 178 174 130 136 147 156 166 173 167 155 161 166 179 177 177 171 169 173 170 172 179 189 198
288 294 297 299 297 300 302 302 300 300 306 316 320 320 317 311 310 312 311 309 311 314 321 321 318 316 312 311 309 306 302 296 289 280 270 265 254 242 241 216 227 227 227 217 208 209 207 203 205 200 191 192 187 189 194 195 194 195 183 164 169 174 172 175 172 156 155 153 171 177 173 167 164 171 179 179 177 170 166 172 172 173 185 194 197
291 291 290 294 303 305 301 300 300 298 307 317 319 315 311 309 308 310 308 308 312 319 319 317 312 310 307 305 306 304 299 293 286 280 269 256 252 241 226 209 224 221 225 214 214 213 208 207 198 195 196 194 186 189 197 196 196 196 180 165 170 174 179 174 171 171 168 169 174 179 181 177 173 177 181 181 180 170 166 171 176 183 189 191 177
293 292 296 298 298 299 298 298 296 299 306 312 312 307 302 304 307 308 305 309 313 319 319 316 310 304 305 305 304 300 295 290 278 275 271 259 240 227 218 208 211 216 202 212 210 213 208 208 196 199 195 196 189 187 199 199 197 197 183 168 177 181 174 168 173 174 179 167 175 181 174 183 181 181 183 185 184 179 174 175 186 186 184 173 158
286 290 295 296 299 299 298 295 295 302 306 308 308 301 296 300 302 297 301 312 316 318 317 312 303 300 304 305 303 301 292 284 283 276 269 255 246 222 212 209 204 194 201 209 208 203 208 203 200 199 199 198 191 192 197 203 200 199 183 173 170 184 173 168 175 183 178 180 179 174 176 184 184 183 184 187 186 187 183 167 187 189 189 193 181
293 294 292 300 305 303 300 299 299 300 301 302 305 298 297 297 293 294 309 313 317 316 314 308 302 304 307 306 304 300 296 290 278 268 259 260 243 221 215 200 197 197 201 205 203 200 194 203 200 209 206 196 192 193 201 204 203 202 186 180 174 174 182 179 179 181 183 176 162 165 169 180 183 183 185 186 186 187 189 172 183 191 191 188 145
278 273 282 297 294 292 297 299 299 298 299 299 302 299 297 296 291 306 314 314 315 313 310 305 301 302 306 306 304 299 292 281 269 262 253 252 243 226 215 204 193 195 201 199 205 195 196 199 200 209 212 202 198 189 206 209 207 207 190 184 179 180 183 183 185 186 180 162 160 171 172 180 184 183 183 183 185 186 184 177 182 187 189 164 125
288 287 288 295 290 295 296 294 293 294 295 298 298 297 298 295 297 318 312 312 311 309 305 300 301 304 304 303 302 299 291 278 265 248 248 244 237 222 217 208 190 200 200 202 204 192 206 209 205 207 203 203 201 201 203 212 213 214 196 185 185 181 185 180 178 171 166 168 164 166 172 182 182 179 180 182 184 186 183 188 188 186 161 112 139
285 286 290 295 293 290 290 290 293 291 291 293 291 290 290 290 305 314 312 311 307 302 299 298 300 302 301 301 300 295 290 278 263 244 240 238 233 223 222 207 195 202 199 206 206 202 212 213 215 210 206 198 196 196 206 206 215 217 207 189 184 180 184 184 170 170 169 167 169 173 176 181 182 184 182 176 161 175 186 179 169 150 128 145 131
288 287 299 305 303 298 294 293 293 292 295 296 294 291 286 294 301 307 308 305 301 299 297 296 294 295 298 297 293 291 290 285 264 253 241 239 232 228 225 220 206 200 201 205 207 205 211 213 217 215 204 187 190 200 202 204 208 208 208 188 185 184 180 177 165 162 166 168 171 170 173 178 176 175 160 140 148 173 167 153 134 128 135 139 149
283 287 297 296 290 289 289 290 286 286 294 297 292 290 292 297 301 305 305 303 300 299 298 295 292 293 290 290 289 285 285 279 270 252 248 242 231 222 225 221 208 204 199 206 205 204 209 209 212 202 192 189 203 206 203 199 201 198 204 188 183 179 177 170 167 166 160 161 162 167 172 173 166 153 144 133 129 114 127 129 132 129 126 137 152
289 291 297 286 290 289 286 288 284 287 294 294 288 288 292 297 300 304 306 305 298 296 296 293 291 289 283 282 281 280 278 279 274 263 244 241 233 225 228 234 227 215 207 205 200 213 210 209 201 196 185 193 203 212 212 200 197 195 194 190 180 183 179 169 168 158 147 150 151 161 155 148 141 138 132 141 146 138 129 134 133 132 130 140 150
285 292 287 285 282 279 285 286 285 290 295 291 293 291 290 294 299 299 301 295 294 295 293 288 287 286 282 276 270 270 273 274 271 269 265 256 240 238 233 228 237 218 223 224 218 215 210 196 203 209 194 193 202 210 190 194 203 204 205 201 187 179 174 159 164 162 152 150 157 154 158 156 158 156 157 157 160 159 151 151 160 154 151 156 162
293 296 291 288 286 286 283 283 286 294 290 290 290 290 291 297 296 292 294 289 287 287 285 285 287 284 285 287 285 282 277 275 277 276 268 263 265 245 241 242 239 231 221 225 227 231 224 208 203 207 207 210 203 184 188 196 201 204 206 204 192 179 169 164 164 154 153 160 161 167 171 169 171 167 166 165 160 162 167 161 168 168 161 169 164